Location: Newark
(59.4564°N, 26.6917°E)
Time: 17:07:40
(UTC+00:00)

S-56A Canister/Altair - All Passes

Search period start: 12 November 2019 00:00
Search period end: 22 November 2019 00:00
Orbit: 634 x 2498 km, 38.9° (Epoch: 11 November)

Date Brightness Start Highest point End Pass type
(mag) Time Alt. Az. Time Alt. Az. Time Alt. Az.
17 Nov - 16:42:46 10° S 16:43:31 10° S 16:44:16 10° SSE visible
18 Nov - 16:09:06 10° S 16:10:58 11° S 16:12:42 10° SSE visible
18 Nov - 18:12:51 10° SSW 18:13:09 10° SSW 18:13:28 10° S visible
19 Nov - 15:35:48 10° S 15:38:23 12° S 15:40:43 10° SSE visible
19 Nov - 17:38:27 10° SSW 17:40:40 12° S 17:42:41 10° S visible
20 Nov - 15:02:36 10° S 15:05:45 12° SSE 15:08:34 10° SE visible
20 Nov - 17:04:54 10° SSW 17:08:09 13° S 17:10:59 10° SSE visible
21 Nov - 14:29:27 10° S 14:33:06 13° SSE 14:36:19 10° SE visible
21 Nov - 16:31:27 10° SW 16:35:35 15° S 16:39:06 10° SSE visible
